{"data":{"norad_id":2874,"intl_designator":"1967-053H","name":"OPS 5712 (P/L 153)","alt_names":[],"object_type":"PAYLOAD","status":"ACTIVE","operator":null,"country":"US","launch_date":"1967-05-31","launch_site_code":"AFWTR","launch_vehicle":null,"mission":null,"orbit_class":"UNKNOWN","rcs_meters":0.6606,"size_class":null,"mass_kg":null,"dimensions":null,"purposes":["military"],"wikipedia_slug":null,"has_3d_model":false,"image_url":null,"decayed_at":null,"tle_current":{"epoch":"2026-05-25T03:16:53.718240Z","epoch_age_seconds":73309,"freshness":"FRESH","line1":"1 02874U 67053H   26145.13673285  .00000015  00000+0  49168-4 0  9992","line2":"2 02874  69.9717 164.7135 0009584 237.3546 122.6636 13.96824639  3577","mean_motion":13.96824639,"eccentricity":0.0009584,"inclination_deg":69.9717,"raan_deg":164.7135,"arg_perigee_deg":237.3546,"mean_anomaly_deg":122.6636,"bstar":4.9168e-5,"rev_number":357,"period_min":103.09096502127,"perigee_km":897.83170652815,"apogee_km":911.79166256669,"semimajor_km":7282.9486845474,"source":"CELESTRAK","updated_at":"2026-05-25T13:38:25.285990Z"}}}